DW8097 Weather Reports


Display with metric or nautical units.
time (UTC)temp
F
wind
direction
speed
MPH
gust
MPH
rain 1hr
in
rain 24hr
in
rain mn
in
humidity
%
barometer
mb
20260510113059 38 228 0.0 2.0 0.00 0.00 0.00 73 1017.1
20260510111600 39 260 0.0 1.0 0.00 0.00 0.00 67 1017.1
20260510110056 39 192 0.0 1.0 0.00 0.00 0.00 70 1016.9
20260510104608 38 192 0.0 1.0 0.00 0.00 0.00 71 1016.8
20260510103022 37 192 0.0 3.0 0.00 0.00 0.00 75 1016.6
20260510101519 36 333 0.0 3.0 0.00 0.00 0.00 73 1016.3
20260510100016 38 218 0.0 2.0 0.00 0.00 0.00 69 1015.9
20260510094513 36 218 1.0 3.0 0.00 0.00 0.00 71 1015.8
20260510093010 40 218 0.0 0.0 0.00 0.00 0.00 68 1015.7
20260510091510 39 218 0.0 1.0 0.00 0.00 0.00 68 1015.6
20260510090007 38 218 0.0 2.0 0.00 0.00 0.00 70 1015.5
20260510084510 39 218 0.0 1.0 0.00 0.00 0.00 68 1015.3
20260510083001 39 218 0.0 1.0 0.00 0.00 0.00 68 1015.0
20260510081618 40 218 0.0 1.0 0.00 0.00 0.00 68 1014.9
20260510081501 40 218 0.0 1.0 0.00 0.00 0.00 68 1014.9
20260510080056 40 218 0.0 1.0 0.00 0.00 0.00 68 1014.8
20260510074556 40 218 0.0 2.0 0.00 0.00 0.00 69 1014.6
20260510073053 40 218 0.0 1.0 0.00 0.00 0.00 66 1014.6
20260510071548 42 218 0.0 0.0 0.00 0.00 0.00 65 1014.5
20260510070045 43 218 0.0 1.0 0.00 0.00 0.00 64 1014.4
20260510064547 43 218 0.0 1.0 0.00 0.00 0.00 64 1014.4
20260510063042 43 218 1.0 2.0 0.00 0.00 0.00 64 1014.4
20260510061550 43 225 1.0 3.0 0.00 0.00 0.00 63 1014.2
20260510060009 42 217 1.0 3.0 0.00 0.00 0.00 66 1014.2
20260510054508 44 232 0.0 2.0 0.00 0.00 0.00 62 1014.1
20260510053002 45 279 0.0 2.0 0.00 0.00 0.00 62 1013.9
20260510051600 45 261 0.0 2.0 0.00 0.00 0.00 61 1013.8
20260510050058 44 231 1.0 3.0 0.00 0.00 0.00 62 1013.5
20260510044558 45 297 0.0 3.0 0.00 0.00 0.00 59 1013.5
20260510043055 46 231 0.0 2.0 0.00 0.00 0.00 58 1013.1
20260510041548 46 229 0.0 2.0 0.00 0.00 0.00 57 1013.0
20260510040050 47 230 0.0 2.0 0.00 0.00 0.00 57 1012.9
20260510034550 47 229 0.0 2.0 0.00 0.00 0.00 55 1012.7
20260510033040 48 229 0.0 1.0 0.00 0.00 0.00 53 1012.5
20260510031554 47 228 0.0 2.0 0.00 0.00 0.00 57 1012.3
20260510030038 47 227 0.0 2.0 0.00 0.00 0.00 55 1012.1
20260510024535 48 225 0.0 2.0 0.00 0.00 0.00 53 1011.8
20260510023028 49 225 0.0 2.0 0.00 0.00 0.00 50 1011.5
20260510021532 50 228 0.0 2.0 0.00 0.00 0.00 47 1011.2
20260510020022 52 279 0.0 2.0 0.00 0.00 0.00 44 1010.9
20260510014517 55 5 0.0 2.0 0.00 0.00 0.00 37 1010.7
20260510013015 55 355 0.0 3.0 0.00 0.00 0.00 37 1010.4
20260510011544 56 360 1.0 7.0 0.00 0.00 0.00 35 1010.0
20260510010039 57 355 4.0 11.0 0.00 0.00 0.00 33 1009.8
20260510004533 58 355 4.0 8.0 0.00 0.00 0.00 32 1009.6
20260510003032 58 355 5.0 15.0 0.00 0.00 0.00 32 1009.4
20260510001529 59 19 5.0 14.0 0.00 0.00 0.00 30 1009.2
20260510000026 59 49 5.0 13.0 0.00 0.00 0.00 29 1008.9
20260509234534 59 338 6.0 11.0 0.00 0.00 0.00 30 1008.8
20260509233021 60 355 8.0 16.0 0.00 0.00 0.00 28 1008.6
20260509231519 60 355 9.0 18.0 0.00 0.00 0.00 27 1008.4
20260509230018 60 9 9.0 20.0 0.00 0.00 0.00 26 1008.2
20260509224513 61 333 10.0 19.0 0.00 0.00 0.00 25 1008.0
20260509223016 61 328 11.0 19.0 0.00 0.00 0.00 25 1007.9
20260509221510 62 360 8.0 16.0 0.00 0.00 0.00 26 1007.6
20260509220013 62 36 10.0 17.0 0.00 0.00 0.00 27 1007.6
20260509214505 62 12 6.0 19.0 0.00 0.00 0.00 28 1007.5
20260509213005 62 355 9.0 20.0 0.00 0.00 0.00 27 1007.4
20260509211504 62 355 10.0 17.0 0.00 0.00 0.00 26 1007.4
20260509210003 62 282 9.0 18.0 0.00 0.00 0.00 27 1007.0
20260509204603 63 355 8.0 20.0 0.00 0.00 0.00 27 1007.0
20260509203058 62 13 10.0 18.0 0.00 0.00 0.00 29 1006.8
20260509201557 62 34 7.0 18.0 0.00 0.00 0.00 30 1006.7
20260509200107 62 16 10.0 20.0 0.00 0.00 0.00 30 1006.6
20260509194529 62 322 8.0 19.0 0.00 0.00 0.00 30 1006.6
20260509193025 61 355 7.0 19.0 0.00 0.00 0.00 28 1006.6
20260509191551 61 27 14.0 24.0 0.00 0.00 0.00 28 1006.3
20260509190056 61 323 12.0 19.0 0.00 0.00 0.00 31 1006.3
20260509184618 61 5 12.0 24.0 0.00 0.00 0.00 32 1006.1
20260509183044 62 5 11.0 18.0 0.00 0.00 0.00 35 1005.9
20260509181546 61 17 8.0 18.0 0.00 0.00 0.00 35 1005.6
20260509180040 60 344 8.0 22.0 0.00 0.00 0.00 36 1005.5
20260509174537 59 355 8.0 22.0 0.00 0.00 0.00 38 1005.5
20260509173035 59 15 10.0 19.0 0.00 0.00 0.00 37 1005.3
20260509171533 59 348 7.0 16.0 0.00 0.00 0.00 37 1005.3
20260509170031 58 20 10.0 16.0 0.00 0.00 0.00 40 1005.2
20260509164525 58 5 14.0 21.0 0.00 0.00 0.00 40 1005.4
20260509163027 58 340 11.0 20.0 0.00 0.00 0.00 39 1005.1
20260509161512 58 360 12.0 21.0 0.00 0.00 0.00 44 1005.0
20260509160009 58 336 6.0 16.0 0.00 0.00 0.00 50 1004.9
20260509154544 56 32 9.0 17.0 0.00 0.00 0.00 55 1004.8
20260509153040 55 321 8.0 15.0 0.00 0.00 0.00 58 1004.5
20260509151507 55 321 6.0 15.0 0.00 0.00 0.00 61 1004.3
20260509150007 54 5 8.0 14.0 0.00 0.00 0.00 60 1004.1
20260509144504 54 312 8.0 14.0 0.00 0.00 0.00 61 1003.9
20260509143006 55 5 9.0 16.0 0.00 0.00 0.00 62 1003.8
20260509141503 54 19 11.0 19.0 0.00 0.00 0.00 62 1003.5
20260509140002 53 360 8.0 14.0 0.00 0.00 0.00 67 1003.4
20260509134529 53 32 6.0 13.0 0.00 0.00 0.00 64 1003.1
20260509133027 53 12 9.0 17.0 0.00 0.00 0.00 60 1002.8
20260509131525 53 355 4.0 7.0 0.00 0.00 0.00 54 1002.5
20260509130024 54 296 2.0 6.0 0.00 0.00 0.00 51 1002.2
20260509124528 54 265 2.0 5.0 0.00 0.00 0.00 51 1002.1
20260509123032 54 302 0.0 3.0 0.00 0.00 0.00 52 1001.9
20260509121523 53 269 0.0 2.0 0.00 0.00 0.00 53 1001.7
20260509120020 53 323 1.0 2.0 0.00 0.00 0.00 50 1001.5
20260509114519 52 241 0.0 3.0 0.00 0.00 0.00 52 1001.4